Tracking 22882 objects as of 19-Apr-2021
HD Live streaming from Space Station
objects crossing your sky now

STARLINK-1569

Track STARLINK-1569 now!
10-day predictions
STARLINK-1569 is classified as:


NORAD ID: 46039
Int'l Code: 2020-055N
Perigee: 553.6 km
Apogee: 555.1 km
Inclination: 53.1 °
Period: 95.6 minutes
Semi major axis: 6925 km
RCS: Unknown
Launch date: August 7, 2020
Source: United States (US)
Launch site: AIR FORCE EASTERN TEST RANGE (AFETR)
aabbcc
Your satellite tracking list
Your tracking list is empty




NASA's NSSDC Master Catalog

Two Line Element Set (TLE):
1 46039U 20055N   21108.62592487  .00000219  00000-0  33584-4 0  9998
2 46039  53.0562 224.5648 0001091  97.7850 262.3263 15.06406284 39173
Source of the keplerian elements: AFSPC